Regional Weather Roundup
Issued by NWS

Home | Current Version | Previous Version | Graphics & Text | Print | Product List | Glossary Off
Versions: 1 2 3 4 5 6 7 8 9 10 11 12 13 14 15 16 17 18 19 20 21 22 23 24 25 26 27 28 29 30 31 32 33 34 35 36 37 38 39 40 41 42 43 44 45 46 47 48 49 50

000
ASUS43 KMKX 210700
RWRWI

WISCONSIN REGIONAL WEATHER ROUNDUP
NATIONAL WEATHER SERVICE MILWAUKEE/SULLIVAN WI
200 AM CDT TUE APR 21 2015

NOTE: "FAIR" INDICATES FEW OR NO CLOUDS BELOW 12,000 FEET WITH NO
SIGNIFICANT WEATHER AND/OR OBSTRUCTIONS TO VISIBILITY.

WIZ001-002-006>008-014>016-023>028-210800-
NORTHWEST WISCONSIN

CITY           SKY/WX    TMP DP  RH WIND       PRES   REMARKS
SUPERIOR ARPT  CLOUDY    34  30  83 W15G25    29.39F WCI  25
ASHLAND        CLOUDY    33  32  96 W10G18    29.35S WCI  25
HAYWARD        LGT SNOW  33  30  88 W8        29.39S FOG     WCI  26
SIREN          LGT SNOW  33  32  96 W10       29.45F WCI  25
CUMBERLAND     LGT SNOW  32  30  93 W14       29.44S WCI  22
RICE LAKE      LGT SNOW  33  31  92 W10       29.46S WCI  25
CHETEK         CLOUDY    33  31  92 W8        29.45S WCI  26
LADYSMITH      FLURRIES  34  32  94 W13G18    29.42F WCI  25
EAU CLAIRE     CLOUDY    36  29  75 W13G25    29.46F WCI  27
MENOMONIE      CLOUDY    36  31  83 W15       29.49S WCI  26
NEW RICHMOND   LGT SNOW  33  30  89 W15G21    29.49F WCI  23
OSCEOLA        FLURRIES  34  31  89 W16       29.53S WCI  24
$$

WIZ003>005-009-010-017-018-210800-
NORTH CENTRAL WISCONSIN

CITY           SKY/WX    TMP DP  RH WIND       PRES   REMARKS
MANITOWISH WTR LGT SNOW  31  31  99 W8G16     29.31F WCI  24
ARBOR VITAE    FLURRIES  33  31  90 W10       29.32F WCI  25
WOODRUFF       FLURRIES  33  31  90 W10       29.32F WCI  25
RHINELANDER    CLOUDY    32  28  85 W13       29.34F WCI  22
EAGLE RIVER    CLOUDY    32  27  83 W12G17    29.31S WCI  23
LAND O LAKES   LGT SNOW  32  30  92 W7        29.30F WCI  26
PHILLIPS       LGT SNOW  32  30  93 W7        29.35F WCI  25
TOMAHAWK       CLOUDY    32  28  86 W3        29.37F
MEDFORD        LGT SNOW  32  31  94 W10G16    29.39F WCI  24
MERRILL        CLOUDY    34  30  87 W10G17    29.38F WCI  26
$$

WIZ029-030-035-036-043>047-210800-
CENTRAL WISCONSIN

CITY           SKY/WX    TMP DP  RH WIND       PRES   REMARKS
WAUSAU         CLOUDY    34  29  82 W14G21    29.39S WCI  25
MOSINEE        CLOUDY    32  32 100 W14       29.42F WCI  22
MARSHFIELD     FLURRIES  35  30  82 W10       29.42F WCI  27
STEVENS POINT  CLOUDY    34  30  84 W8        29.43F WCI  27
WAUPACA        CLOUDY    39  32  75 W14       29.44S WCI  31
WAUTOMA        NOT AVBL
WISC RAPIDS    CLOUDY    37  28  70 W8        29.46S WCI  31
CAMP DOUGLAS   DRIZZLE   37  37 100 SW16G25   29.47F WCI  28
$$

WIZ011>013-019>022-031-037>040-048>050-210800-
NORTHEAST WISCONSIN

CITY           SKY/WX    TMP DP  RH WIND       PRES   REMARKS
ANTIGO         CLOUDY    33  29  86 W13       29.37S WCI  23
SHAWANO        CLOUDY    40  29  66 SW13G18   29.41F WCI  32
OCONTO         MOCLDY    37  28  72 SW7       29.40F WCI  31
STURGEON BAY   CLOUDY    37  27  65 W12G21    29.41F WCI  30
GREEN BAY      CLOUDY    40  31  70 SW9       29.42F WCI  34
MANITOWOC      NOT AVBL
APPLETON       DRIZZLE   37  30  75 SW14      29.44F WCI  29
CLINTONVILLE   CLOUDY    37  30  75 SW9       29.42F WCI  31
OSHKOSH        CLOUDY    40  29  64 VRB7G16   29.44F
$$

WIZ032>034-041-042-053>061-210800-
SOUTHWEST WISCONSIN

CITY           SKY/WX    TMP DP  RH WIND       PRES   REMARKS
LA CROSSE      CLOUDY    40  31  70 W16       29.52S WCI  31
SPARTA         DRIZZLE   38  32  79 W13G20    29.50F WCI  30
VIROQUA        CLOUDY    37  32  83 W14       29.51F WCI  28
BOSCOBEL       MOCLDY    41  30  65 W14G24    29.56F
PRAIRIE DU CHI MOCLDY    40  29  66 W10       29.58F WCI  33
PLATTEVILLE    PTCLDY    38  31  75 W14G22    29.58F WCI  30
$$

WIZ056-057-062-063-064-067-068-210800-
SOUTH CENTRAL WISCONSIN

CITY           SKY/WX    TMP DP  RH WIND       PRES   REMARKS
REEDSBURG      MOCLDY    37  31  78 SW12G21   29.50F WCI  30
BARABOO/DELLS  CLOUDY    38  30  73 W10G21    29.50S WCI  31
LONE ROCK      CLOUDY    40  31  70 W14G22    29.53F WCI  32
MINERAL POINT  PTCLDY    37  32  81 W15       29.55S WCI  28
MADISON        MOCLDY    40  29  64 W8        29.51F WCI  34
MIDDLETON      MOCLDY    41  30  64 W14       29.52F
WATERTOWN      CLOUDY    40  32  73 W8        29.51F WCI  34
MONROE         PTCLDY    37  32  81 SW18      29.56F WCI  27
JANESVILLE     PTCLDY    39  32  75 SW12      29.56S WCI  32
$$

WIZ051-052-058>065-066-070>072-210800-
SOUTHEAST WISCONSIN

CITY           SKY/WX    TMP DP  RH WIND       PRES   REMARKS
MILWAUKEE      CLOUDY    42  30  62 SW15      29.53F
WAUKESHA       MOCLDY    37  30  75 SW14      29.53F WCI  29
MILWAUKEE/TIMM CLOUDY    41  30  65 SW16G22   29.52F
RACINE         CLOUDY    42  31  64 SW10G18   29.55F
BURLINGTON     CLOUDY    39  31  74 W13G20    29.55S WCI  31
KENOSHA        CLOUDY    41  32  70 W17G25    29.55F
FOND DU LAC    CLOUDY    40  29  64 SW13G20   29.47F WCI  32
SHEBOYGAN      CLOUDY    40  29  64 SW14      29.46F WCI  32
WEST BEND      CLOUDY    39  28  65 SW10G18   29.49F WCI  32
JUNEAU         MOCLDY    37  31  77 SW16      29.51S WCI  28
$$

LSZ147-162-210800-
LAKE SUPERIOR

STATION/POSITION TIME  TEMP    WIND        PRES    WAVE
                       AIR SEA DIR/SP/G            HT/PER
                 (UTC) (F)     (DEG/KT/KT) (MB)    (FT/S)
DEVILS ISLAND    0600   36     250/ 20/ 25  992.9S
PORT WING        0640   36     260/ 15/ 22  994.6S
SAXON HARBOR     0600   35     220/  5/ 12  993.6
$$

LMZ867-665-643>646-210800-
LAKE MICHIGAN

STATION/POSITION TIME  TEMP    WIND        PRES    WAVE
                       AIR SEA DIR/SP/G            HT/PER
                 (UTC) (F)     (DEG/KT/KT) (MB)    (FT/S)
CHAMBERS ISLAND  0600   39     210/  9/ 16  995.6F
NORTHPORT PIER   0600   39     220/  4/  9  995.3F
SISTER BAY       0602   40     240/ 15/ 19   N/A
KEWAUNEE LAKESHO 0600   41     250/  8/ 14  996.3F
SHEBOYGAN LAKESH 0600   42     230/ 11/ 13  999.0S
PORT WASHINGTON  0600   43     260/  7/ 15 1000.0
MILWAUKEE LAKESH 0600   44     250/ 10/ 13   N/A
KENOSHA   LAKESH 0600   43     250/ 15/ 20 1001.4S
$$

TC  - TEMPERATURE IN CELSIUS
VSB - VISIBILITY IN STATUTE MILES
WCI - WIND CHILL INDEX
HX  - HEAT INDEX




USA.gov is the U.S. government's official web portal to all federal, state and local government web resources and services.